Richmond, KY

8:34 AM EDT on April 25, 2017 (GMT -0400)
Richmond

Weather History for KI39 - April, 2013

Change the Weather History Date:

Saturday, April 27, 2013

  Actual Average (KLEX) Record (KLEX)
Temperature  
Mean Temperature 54 °F -  
Max Temperature 57 °F 68 °F 87 °F (1986)
Min Temperature 50 °F 48 °F 32 °F (1976)
Degree Days  
Heating Degree Days 12    
Growing Degree Days 4 (Base 50)    
Moisture  
Dew Point 47 °F    
Average Humidity 77    
Maximum Humidity 94    
Minimum Humidity 54    
Precipitation  
Precipitation 0.00 in - - ()
Sea Level Pressure  
Sea Level Pressure 30.24 in    
Wind  
Wind Speed 3 mph (SE)    
Max Wind Speed 16 mph    
Max Gust Speed 21 mph    
Visibility 10 miles    
Events      
Averages and records for this station are not official NWS values.
T = Trace of Precipitation, MM = Missing Value Source: NWS Daily Summary

Daily Weather History Graph

Daily Weather History Graph

Search for Another Location

Airport or City:

Trip Planner

Search our weather history database for the weather conditions in past years. The results will help you decide how hot, cold, wet, or windy it might be!

Date:

Astronomy

Apr. 27, 2013 Rise Set
Actual Time 6:46 AM EDT 8:24 PM EDT
Civil Twilight 6:18 AM EDT 8:52 PM EDT
Nautical Twilight 5:44 AM EDT 9:25 PM EDT
Astronomical Twilight 5:09 AM EDT 10:01 PM EDT
Moon 10:50 PM EDT (4/27) 8:05 AM EDT (4/27)
Length of Visible Light 14h 33m
Length of Day
13h 37m
Waning Gibbous, 95% of the Moon is Illuminated
Apr 27
Waning Gibbous
May 2
Last Quarter
May 9
New
May 18
First Quarter
May 25
Full

Hourly Weather History & Observations

Time (EDT) Temp. Dew Point Humidity Pressure Visibility Wind Dir Wind Speed Gust Speed Precip Events Conditions
12:15 AM 51.8 °F 41.0 °F 67% 30.34 in 10.0 mi SE 3.5 mph - N/A   Overcast
12:35 AM 53.6 °F 37.4 °F 54% 30.35 in 10.0 mi Calm Calm - N/A   Overcast
12:55 AM 53.6 °F 37.4 °F 54% 30.35 in 10.0 mi Calm Calm - N/A   Mostly Cloudy
1:15 AM 51.8 °F 39.2 °F 62% 30.35 in 10.0 mi Calm Calm - N/A   Scattered Clouds
1:35 AM 51.8 °F 39.2 °F 62% 30.34 in 10.0 mi Calm Calm - N/A   Scattered Clouds
1:55 AM 51.8 °F 41.0 °F 67% 30.33 in 10.0 mi NNE 3.5 mph - N/A   Overcast
2:15 AM 51.8 °F 41.0 °F 67% 30.33 in 10.0 mi Calm Calm - N/A   Overcast
2:35 AM 51.8 °F 41.0 °F 67% 30.33 in 10.0 mi Calm Calm - N/A   Overcast
2:55 AM 50.0 °F 42.8 °F 76% 30.32 in 10.0 mi ESE 3.5 mph - N/A   Overcast
3:15 AM 50.0 °F 42.8 °F 76% 30.32 in 10.0 mi Calm Calm - N/A   Overcast
3:35 AM 51.8 °F 42.8 °F 71% 30.33 in 10.0 mi SSW 3.5 mph - N/A   Overcast
3:55 AM 50.0 °F 42.8 °F 76% 30.32 in 10.0 mi Calm Calm - N/A   Overcast
4:15 AM 50.0 °F 42.8 °F 76% 30.32 in 10.0 mi Calm Calm - N/A   Overcast
4:35 AM 50.0 °F 42.8 °F 76% 30.33 in 10.0 mi Calm Calm - N/A   Overcast
4:55 AM 51.8 °F 41.0 °F 67% 30.33 in 10.0 mi SW 3.5 mph - N/A   Overcast
5:15 AM 50.0 °F 42.8 °F 76% 30.31 in 10.0 mi South 3.5 mph - N/A   Overcast
5:35 AM 51.8 °F 41.0 °F 67% 30.30 in 10.0 mi Calm Calm - N/A   Overcast
5:55 AM 50.0 °F 42.8 °F 76% 30.31 in 10.0 mi Calm Calm - N/A   Overcast
6:15 AM 51.8 °F 41.0 °F 67% 30.30 in 10.0 mi Calm Calm - N/A   Overcast
6:35 AM 50.0 °F 42.8 °F 76% 30.30 in 10.0 mi SSE 3.5 mph - N/A   Overcast
7:35 AM 50.0 °F 44.6 °F 82% 30.29 in 10.0 mi ESE 3.5 mph - N/A   Overcast
7:55 AM 51.8 °F 42.8 °F 71% 30.30 in 10.0 mi Calm Calm - N/A   Overcast
8:15 AM 51.8 °F 44.6 °F 76% 30.29 in 10.0 mi East 3.5 mph - N/A   Overcast
8:35 AM 51.8 °F 44.6 °F 76% 30.29 in 10.0 mi Calm Calm - N/A   Overcast
8:55 AM 51.8 °F 44.6 °F 76% 30.29 in 10.0 mi ESE 3.5 mph - N/A   Overcast
9:15 AM 53.6 °F 44.6 °F 72% 30.29 in 10.0 mi Calm Calm - N/A   Overcast
9:35 AM 53.6 °F 44.6 °F 72% 30.28 in 10.0 mi ESE 3.5 mph - N/A   Overcast
9:55 AM 53.6 °F 44.6 °F 72% 30.28 in 10.0 mi East 3.5 mph - N/A   Overcast
10:15 AM 53.6 °F 44.6 °F 72% 30.27 in 10.0 mi Calm Calm - N/A   Overcast
10:35 AM 53.6 °F 46.4 °F 77% 30.28 in 10.0 mi East 3.5 mph - N/A   Overcast
10:55 AM 53.6 °F 44.6 °F 72% 30.27 in 10.0 mi ESE 3.5 mph - N/A   Overcast
11:15 AM 55.4 °F 46.4 °F 72% 30.27 in 10.0 mi SE 3.5 mph - N/A   Overcast
11:35 AM 55.4 °F 46.4 °F 72% 30.28 in 10.0 mi Calm Calm - N/A   Overcast
11:55 AM 55.4 °F 46.4 °F 72% 30.28 in 10.0 mi Calm Calm - N/A   Overcast
12:35 PM 57.2 °F 44.6 °F 63% 30.29 in 10.0 mi South 4.6 mph - N/A   Overcast
12:55 PM 57.2 °F 44.6 °F 63% 30.29 in 10.0 mi South 3.5 mph - N/A   Overcast
1:15 PM 57.2 °F 46.4 °F 67% 30.29 in 10.0 mi South 8.1 mph - N/A   Overcast
1:35 PM 55.4 °F 48.2 °F 77% 30.28 in 10.0 mi South 9.2 mph - N/A   Overcast
1:55 PM 53.6 °F 50.0 °F 88% 30.27 in 10.0 mi South 6.9 mph - N/A   Overcast
2:15 PM 53.6 °F 50.0 °F 88% 30.25 in 10.0 mi SSE 8.1 mph - N/A   Overcast
2:35 PM 53.6 °F 50.0 °F 88% 30.26 in 10.0 mi SSE 8.1 mph - N/A   Overcast
2:55 PM 53.6 °F 50.0 °F 88% 30.25 in 10.0 mi SE 6.9 mph - N/A   Overcast
3:15 PM 55.4 °F 51.8 °F 88% 30.24 in 7.0 mi SE 6.9 mph - N/A   Overcast
3:35 PM 55.4 °F 51.8 °F 88% 30.22 in 5.0 mi SE 9.2 mph - N/A   Overcast
3:55 PM 55.4 °F 51.8 °F 88% 30.21 in 10.0 mi SE 5.8 mph - N/A   Overcast
4:15 PM 55.4 °F 51.8 °F 88% 30.20 in 10.0 mi SE 11.5 mph - N/A   Unknown
4:35 PM 57.2 °F 51.8 °F 82% 30.18 in 10.0 mi ESE 10.4 mph 17.3 mph N/A   Overcast
4:55 PM 57.2 °F 51.8 °F 82% 30.17 in 10.0 mi SE 16.1 mph 20.7 mph N/A   Overcast
5:15 PM 57.2 °F 50.0 °F 77% 30.18 in 10.0 mi SSE 11.5 mph 18.4 mph N/A   Overcast
5:35 PM 57.2 °F 50.0 °F 77% 30.17 in 10.0 mi SSE 11.5 mph - N/A   Overcast
5:55 PM 57.2 °F 50.0 °F 77% 30.17 in 10.0 mi SE 8.1 mph - N/A   Overcast
6:15 PM 57.2 °F 50.0 °F 77% 30.17 in 10.0 mi SSE 11.5 mph 16.1 mph N/A   Overcast
6:55 PM 57.2 °F 50.0 °F 77% 30.15 in 10.0 mi SE 9.2 mph - N/A   Overcast
7:15 PM 57.2 °F 50.0 °F 77% 30.15 in 10.0 mi SSE 9.2 mph - N/A   Overcast
7:35 PM 55.4 °F 51.8 °F 88% 30.14 in 10.0 mi SE 9.2 mph - N/A   Overcast
7:55 PM 55.4 °F 51.8 °F 88% 30.13 in 10.0 mi SE 9.2 mph - N/A   Overcast
8:15 PM 55.4 °F 51.8 °F 88% 30.13 in 10.0 mi SE 6.9 mph - N/A   Overcast
8:55 PM 55.4 °F 51.8 °F 88% 30.12 in 10.0 mi SE 9.2 mph - N/A   Overcast
9:15 PM 55.4 °F 51.8 °F 88% 30.11 in 10.0 mi SE 8.1 mph - N/A   Overcast
9:35 PM 55.4 °F 51.8 °F 88% 30.10 in 10.0 mi SE 9.2 mph - N/A   Overcast
9:55 PM 55.4 °F 51.8 °F 88% 30.09 in 7.0 mi SE 9.2 mph - N/A   Overcast
10:15 PM 55.4 °F 51.8 °F 88% 30.10 in 10.0 mi Calm Calm - N/A   Overcast
10:35 PM 53.6 °F 51.8 °F 94% 30.09 in 10.0 mi SE 8.1 mph - N/A   Overcast
10:55 PM 55.4 °F 51.8 °F 88% 30.10 in 10.0 mi SE 8.1 mph - N/A   Overcast
11:15 PM 55.4 °F 51.8 °F 88% 30.09 in 5.0 mi ESE 4.6 mph - N/A   Overcast
11:35 PM 53.6 °F 51.8 °F 94% 30.08 in 5.0 mi ESE 5.8 mph - N/A   Overcast